"read_dt","SO2 (ppb)","flags","PMT voltage (V)","lamp voltage (V)","lamp intensity (Hz)","internal temp (C)","react chamber temp (C)","sample flow (l/min)","pres (mmHg)","SO2 bkg (ppb)","SO2 coefficient"
2016-05-14 00:00:00,1948E-3,5C000400,-0724,0836,12208,032.6,045.6,0.246,755.7,01.16,0.508
2016-05-14 00:01:00,1834E-3,5C000400,-0724,0836,12160,032.5,045.6,0.247,755.7,01.16,0.508
2016-05-14 00:02:00,1953E-3,5C000400,-0724,0836,12192,032.6,045.6,0.246,755.6,01.16,0.508
2016-05-14 00:03:00,1871E-3,5C000400,-0724,0836,12072,032.6,045.6,0.246,755.7,01.16,0.508
2016-05-14 00:04:00,1971E-3,5C000400,-0724,0836,12136,032.6,045.6,0.246,755.7,01.16,0.508
2016-05-14 00:05:00,1829E-3,5C000400,-0724,0836,12237,032.6,045.6,0.246,755.7,01.16,0.508
2016-05-14 00:06:00,1789E-3,5C000400,-0724,0836,12246,032.6,045.6,0.247,755.7,01.16,0.508
2016-05-14 00:07:00,1856E-3,5C000400,-0724,0835,12041,032.6,045.6,0.247,755.7,01.16,0.508
2016-05-14 00:08:00,1944E-3,5C000400,-0724,0836,12165,032.6,045.5,0.247,755.6,01.16,0.508
2016-05-14 00:09:00,1936E-3,5C000400,-0724,0836,12148,032.6,045.5,0.247,755.6,01.16,0.508
2016-05-14 00:10:00,1899E-3,5C000400,-0724,0836,12123,032.6,045.6,0.246,755.6,01.16,0.508
2016-05-14 00:11:00,1868E-3,5C000400,-0724,0835,12093,032.6,045.6,0.246,755.6,01.16,0.508
2016-05-14 00:12:00,1913E-3,5C000400,-0724,0835,12243,032.6,045.6,0.246,755.6,01.16,0.508
2016-05-14 00:13:00,1929E-3,5C000400,-0724,0837,12168,032.6,045.6,0.247,755.6,01.16,0.508
2016-05-14 00:14:00,1878E-3,5C000400,-0724,0835,12197,032.6,045.6,0.246,755.6,01.16,0.508
2016-05-14 00:15:00,1795E-3,5C000400,-0724,0836,12233,032.6,045.6,0.246,755.5,01.16,0.508
2016-05-14 00:16:00,1948E-3,5C000400,-0724,0836,11966,032.6,045.6,0.246,755.5,01.16,0.508
2016-05-14 00:17:00,1939E-3,5C000400,-0724,0836,12206,032.6,045.6,0.246,755.5,01.16,0.508
2016-05-14 00:18:00,2019E-3,5C000400,-0724,0836,12139,032.6,045.6,0.247,755.5,01.16,0.508
2016-05-14 00:19:00,1940E-3,5C000400,-0724,0836,12178,032.6,045.6,0.246,755.5,01.16,0.508
2016-05-14 00:20:00,1819E-3,5C000400,-0724,0836,12058,032.6,045.6,0.246,755.5,01.16,0.508
2016-05-14 00:21:00,1962E-3,5C000400,-0724,0836,12184,032.6,045.6,0.246,755.5,01.16,0.508
2016-05-14 00:22:00,1992E-3,5C000400,-0724,0836,12036,032.6,045.6,0.246,755.5,01.16,0.508
2016-05-14 00:23:00,1733E-3,5C000400,-0724,0836,12089,032.6,045.6,0.247,755.5,01.16,0.508
2016-05-14 00:24:00,1860E-3,5C000400,-0724,0835,11999,032.6,045.6,0.246,755.5,01.16,0.508
2016-05-14 00:25:00,1871E-3,5C000400,-0724,0836,12172,032.6,045.6,0.246,755.5,01.16,0.508
2016-05-14 00:26:00,2052E-3,5C000400,-0724,0835,12140,032.6,045.6,0.246,755.4,01.16,0.508
2016-05-14 00:27:00,1923E-3,5C000400,-0724,0835,11972,032.6,045.6,0.246,755.5,01.16,0.508
2016-05-14 00:28:00,1854E-3,5C000400,-0724,0835,12184,032.6,045.6,0.246,755.4,01.16,0.508
2016-05-14 00:29:00,1989E-3,5C000400,-0724,0836,12215,032.6,045.6,0.246,755.4,01.16,0.508
2016-05-14 00:30:00,1977E-3,5C000400,-0724,0836,12154,032.6,045.6,0.246,755.3,01.16,0.508
2016-05-14 00:31:00,1969E-3,5C000400,-0724,0836,12090,032.6,045.6,0.246,755.4,01.16,0.508
2016-05-14 00:32:00,1918E-3,5C000400,-0724,0835,12043,032.6,045.6,0.246,755.3,01.16,0.508
2016-05-14 00:33:00,1836E-3,5C000400,-0724,0836,12029,032.7,045.6,0.246,755.3,01.16,0.508
2016-05-14 00:34:00,1862E-3,5C000400,-0724,0836,12114,032.6,045.6,0.246,755.3,01.16,0.508
2016-05-14 00:35:00,1833E-3,5C000400,-0724,0836,12147,032.7,045.6,0.246,755.3,01.16,0.508
2016-05-14 00:36:00,1841E-3,5C000400,-0724,0835,12092,032.7,045.5,0.246,755.3,01.16,0.508
2016-05-14 00:37:00,1889E-3,5C000400,-0724,0837,12173,032.6,045.6,0.246,755.3,01.16,0.508
2016-05-14 00:38:00,1909E-3,5C000400,-0724,0836,12185,032.6,045.6,0.246,755.3,01.16,0.508
2016-05-14 00:39:00,2011E-3,5C000400,-0724,0836,12145,032.6,045.6,0.247,755.2,01.16,0.508
2016-05-14 00:40:00,1827E-3,5C000400,-0724,0836,12099,032.7,045.6,0.246,755.2,01.16,0.508
2016-05-14 00:41:00,1923E-3,5C000400,-0724,0836,12145,032.6,045.6,0.246,755.2,01.16,0.508
2016-05-14 00:42:00,1961E-3,5C000400,-0724,0836,12216,032.7,045.6,0.246,755.2,01.16,0.508
2016-05-14 00:43:00,1868E-3,5C000400,-0724,0836,12137,032.7,045.6,0.246,755.2,01.16,0.508
2016-05-14 00:44:00,1931E-3,5C000400,-0724,0835,12135,032.6,045.6,0.247,755.2,01.16,0.508
2016-05-14 00:45:00,1939E-3,5C000400,-0724,0836,12147,032.6,045.6,0.246,755.2,01.16,0.508
2016-05-14 00:46:00,2023E-3,5C000400,-0724,0836,11834,032.7,045.6,0.246,755.2,01.16,0.508
2016-05-14 00:47:00,1916E-3,5C000400,-0724,0836,12271,032.7,045.6,0.246,755.2,01.16,0.508
2016-05-14 00:48:00,1995E-3,5C000400,-0724,0835,12146,032.6,045.6,0.246,755.2,01.16,0.508
2016-05-14 00:49:00,1957E-3,5C000400,-0724,0836,12229,032.6,045.6,0.247,755.2,01.16,0.508
2016-05-14 00:50:00,1834E-3,5C000400,-0724,0836,12067,032.7,045.6,0.246,755.2,01.16,0.508
2016-05-14 00:51:00,1811E-3,5C000400,-0724,0837,12182,032.7,045.6,0.246,755.2,01.16,0.508
2016-05-14 00:52:00,1951E-3,5C000400,-0724,0836,12108,032.7,045.6,0.246,755.2,01.16,0.508
2016-05-14 00:53:00,1866E-3,5C000400,-0724,0836,12111,032.6,045.6,0.246,755.2,01.16,0.508
2016-05-14 00:54:00,1972E-3,5C000400,-0724,0836,12097,032.7,045.6,0.246,755.2,01.16,0.508
2016-05-14 00:55:00,1898E-3,5C000400,-0724,0836,12214,032.7,045.6,0.246,755.2,01.16,0.508
2016-05-14 00:56:00,1763E-3,5C000400,-0724,0836,12036,032.7,045.6,0.246,755.1,01.16,0.508
2016-05-14 00:57:00,2003E-3,5C000400,-0724,0836,12112,032.7,045.6,0.246,755.1,01.16,0.508
2016-05-14 00:58:00,1877E-3,5C000400,-0724,0836,12173,032.7,045.6,0.246,755.1,01.16,0.508
2016-05-14 00:59:00,1951E-3,5C000400,-0724,0836,12088,032.7,045.6,0.246,755.1,01.16,0.508
2016-05-14 01:00:00,1968E-3,5C000400,-0724,0836,12125,032.7,045.6,0.246,755.1,01.16,0.508
2016-05-14 01:01:00,2002E-3,5C000400,-0724,0836,12059,032.7,045.6,0.246,755.2,01.16,0.508
2016-05-14 01:02:00,1934E-3,5C000400,-0724,0836,12079,032.7,045.6,0.246,755.1,01.16,0.508
2016-05-14 01:03:00,1882E-3,5C000400,-0724,0836,12170,032.7,045.6,0.246,755.1,01.16,0.508
2016-05-14 01:04:00,2069E-3,5C000400,-0724,0836,11993,032.7,045.6,0.246,755.0,01.17,0.508
2016-05-14 01:05:00,1909E-3,5C000400,-0724,0836,12158,032.7,045.6,0.246,755.0,01.17,0.508
2016-05-14 01:06:00,1861E-3,5C000400,-0724,0836,12164,032.7,045.6,0.246,755.0,01.17,0.508
2016-05-14 01:07:00,1937E-3,5C000400,-0724,0836,12142,032.7,045.6,0.246,755.0,01.17,0.508
2016-05-14 01:08:00,2012E-3,5C000400,-0724,0836,12175,032.7,045.6,0.246,755.0,01.17,0.508
2016-05-14 01:09:00,1926E-3,5C000400,-0724,0835,12054,032.7,045.6,0.246,754.9,01.17,0.508
2016-05-14 01:10:00,1742E-3,5C000400,-0724,0836,12011,032.7,045.6,0.247,754.9,01.17,0.508
2016-05-14 01:11:00,2103E-3,5C000400,-0724,0835,12040,032.7,045.6,0.246,754.9,01.17,0.508
2016-05-14 01:12:00,1889E-3,5C000400,-0724,0836,12043,032.7,045.6,0.246,754.9,01.17,0.508
2016-05-14 01:13:00,1925E-3,5C000400,-0724,0836,12096,032.7,045.6,0.246,754.9,01.17,0.508
2016-05-14 01:14:00,1819E-3,5C000400,-0724,0835,12158,032.7,045.6,0.246,754.9,01.17,0.508
2016-05-14 01:15:00,1850E-3,5C000400,-0724,0836,12082,032.7,045.5,0.246,754.9,01.17,0.508
2016-05-14 01:16:00,1859E-3,5C000400,-0724,0837,12186,032.7,045.6,0.246,754.9,01.17,0.508
2016-05-14 01:17:00,1924E-3,5C000400,-0724,0836,12266,032.7,045.6,0.246,754.8,01.17,0.508
2016-05-14 01:18:00,2019E-3,5C000400,-0724,0836,12190,032.7,045.6,0.246,754.8,01.17,0.508
2016-05-14 01:19:00,1917E-3,5C000400,-0724,0836,12165,032.7,045.6,0.246,754.8,01.17,0.508
2016-05-14 01:20:00,1954E-3,5C000400,-0724,0836,12112,032.7,045.6,0.246,754.8,01.17,0.508
2016-05-14 01:21:00,2023E-3,5C000400,-0724,0836,12041,032.7,045.6,0.246,754.8,01.17,0.508
2016-05-14 01:22:00,1923E-3,5C000400,-0724,0836,12152,032.7,045.6,0.246,754.8,01.17,0.508
2016-05-14 01:23:00,2043E-3,5C000400,-0724,0836,12116,032.7,045.6,0.246,754.8,01.17,0.508
2016-05-14 01:24:00,1780E-3,5C000400,-0724,0836,12134,032.7,045.6,0.246,754.8,01.17,0.508
2016-05-14 01:25:00,1972E-3,5C000400,-0724,0836,12108,032.7,045.6,0.246,754.8,01.17,0.508
2016-05-14 01:26:00,1894E-3,5C000400,-0724,0836,12077,032.7,045.6,0.246,754.7,01.17,0.508
2016-05-14 01:27:00,1940E-3,5C000400,-0724,0836,12184,032.7,045.6,0.246,754.8,01.17,0.508
2016-05-14 01:28:00,2073E-3,5C000400,-0724,0836,12027,032.7,045.6,0.246,754.7,01.17,0.508
2016-05-14 01:29:00,1861E-3,5C000400,-0724,0836,12085,032.7,045.6,0.246,754.7,01.17,0.508
2016-05-14 01:30:00,2004E-3,5C000400,-0724,0836,12222,032.7,045.6,0.246,754.7,01.17,0.508
2016-05-14 01:31:00,1955E-3,5C000400,-0724,0836,12153,032.7,045.6,0.246,754.6,01.17,0.508
2016-05-14 01:32:00,2002E-3,5C000400,-0724,0836,12210,032.7,045.6,0.246,754.7,01.17,0.508
2016-05-14 01:33:00,2025E-3,5C000400,-0724,0835,12018,032.7,045.6,0.246,754.6,01.17,0.508
2016-05-14 01:34:00,2095E-3,5C000400,-0724,0835,12014,032.8,045.6,0.246,754.6,01.17,0.508
2016-05-14 01:35:00,1911E-3,5C000400,-0724,0836,12247,032.7,045.6,0.246,754.6,01.17,0.508
2016-05-14 01:36:00,2000E-3,5C000400,-0724,0836,12042,032.8,045.6,0.246,754.6,01.17,0.508
2016-05-14 01:37:00,1913E-3,5C000400,-0724,0835,12102,032.8,045.6,0.246,754.6,01.17,0.508
2016-05-14 01:38:00,1928E-3,5C000400,-0724,0836,11985,032.8,045.6,0.246,754.6,01.17,0.508
2016-05-14 01:39:00,1898E-3,5C000400,-0724,0836,12066,032.8,045.6,0.246,754.6,01.17,0.508
2016-05-14 01:40:00,2038E-3,5C000400,-0724,0836,12084,032.7,045.6,0.246,754.6,01.17,0.508
2016-05-14 01:41:00,1788E-3,5C000400,-0724,0836,12185,032.7,045.6,0.246,754.6,01.17,0.508
2016-05-14 01:42:00,1942E-3,5C000400,-0724,0836,12186,032.8,045.6,0.246,754.6,01.17,0.508
2016-05-14 01:43:00,1945E-3,5C000400,-0724,0836,12089,032.8,045.6,0.246,754.6,01.17,0.508
2016-05-14 01:44:00,1912E-3,5C000400,-0724,0836,12154,032.8,045.6,0.246,754.6,01.17,0.508
2016-05-14 01:45:00,1965E-3,5C000400,-0724,0836,12262,032.8,045.6,0.246,754.5,01.17,0.508
2016-05-14 01:46:00,1910E-3,5C000400,-0724,0836,12165,032.8,045.6,0.246,754.5,01.17,0.508
2016-05-14 01:47:00,1789E-3,5C000400,-0724,0836,12162,032.8,045.6,0.246,754.5,01.17,0.508
2016-05-14 01:48:00,1947E-3,5C000400,-0724,0836,12117,032.8,045.6,0.246,754.5,01.17,0.508
2016-05-14 01:49:00,1860E-3,5C000400,-0724,0836,12156,032.8,045.6,0.246,754.4,01.17,0.508
2016-05-14 01:50:00,1976E-3,5C000400,-0724,0835,12160,032.8,045.6,0.246,754.5,01.17,0.508
2016-05-14 01:51:00,1852E-3,5C000400,-0724,0836,12111,032.8,045.6,0.246,754.5,01.17,0.508
2016-05-14 01:52:00,1904E-3,5C000400,-0724,0836,12203,032.8,045.6,0.246,754.5,01.17,0.508
2016-05-14 01:53:00,1911E-3,5C000400,-0724,0836,12043,032.8,045.6,0.246,754.5,01.17,0.508
2016-05-14 01:54:00,1862E-3,5C000400,-0724,0836,12159,032.8,045.6,0.246,754.5,01.17,0.508
2016-05-14 01:55:00,1880E-3,5C000400,-0724,0836,12170,032.8,045.6,0.246,754.4,01.17,0.508
2016-05-14 01:56:00,1956E-3,5C000400,-0724,0837,12155,032.8,045.6,0.246,754.5,01.17,0.508
2016-05-14 01:57:00,1954E-3,5C000400,-0724,0836,12023,032.8,045.6,0.246,754.6,01.17,0.508
2016-05-14 01:58:00,1931E-3,5C000400,-0724,0836,12181,032.8,045.6,0.246,754.5,01.17,0.508
2016-05-14 01:59:00,1858E-3,5C000400,-0724,0836,12106,032.8,045.6,0.246,754.5,01.17,0.508
2016-05-14 02:00:00,1858E-3,5C000400,-0724,0836,12231,032.8,045.6,0.246,754.5,01.17,0.508
2016-05-14 02:01:00,1805E-3,5C000400,-0724,0837,12139,032.8,045.6,0.246,754.5,01.17,0.508
2016-05-14 02:02:00,1943E-3,5C000400,-0724,0836,12079,032.8,045.6,0.246,754.5,01.17,0.508
2016-05-14 02:03:00,1775E-3,5C000400,-0724,0836,12172,032.8,045.6,0.246,754.5,01.17,0.508
2016-05-14 02:04:00,2067E-3,5C000400,-0724,0836,12167,032.8,045.6,0.245,754.6,01.17,0.508
2016-05-14 02:05:00,1999E-3,5C000400,-0724,0836,12023,032.8,045.6,0.246,754.5,01.17,0.508
2016-05-14 02:06:00,1951E-3,5C000400,-0724,0836,12181,032.8,045.6,0.246,754.5,01.17,0.508
2016-05-14 02:07:00,1892E-3,5C000400,-0724,0836,12078,032.8,045.6,0.246,754.4,01.17,0.508
2016-05-14 02:08:00,1853E-3,5C000400,-0724,0836,12229,032.8,045.6,0.246,754.4,01.17,0.508
2016-05-14 02:09:00,1866E-3,5C000400,-0724,0836,11989,032.8,045.6,0.246,754.3,01.17,0.508
2016-05-14 02:10:00,2000E-3,5C000400,-0724,0836,11978,032.8,045.6,0.246,754.3,01.17,0.508
2016-05-14 02:11:00,1918E-3,5C000400,-0724,0836,12133,032.8,045.6,0.246,754.4,01.17,0.508
2016-05-14 02:12:00,1978E-3,5C000400,-0724,0836,11991,032.7,045.6,0.246,754.4,01.17,0.508
2016-05-14 02:13:00,1889E-3,5C000400,-0724,0836,12094,032.7,045.6,0.246,754.3,01.17,0.508
2016-05-14 02:14:00,1939E-3,5C000400,-0724,0836,11973,032.6,045.6,0.246,754.4,01.17,0.508
2016-05-14 02:15:00,1926E-3,5C000400,-0724,0836,12091,032.5,045.6,0.246,754.4,01.17,0.508
2016-05-14 02:16:00,1864E-3,5C000400,-0724,0836,12141,032.5,045.6,0.246,754.4,01.17,0.508
2016-05-14 02:17:00,1923E-3,5C000400,-0724,0835,12318,032.4,045.6,0.246,754.5,01.17,0.508
2016-05-14 02:18:00,2079E-3,5C000400,-0724,0835,12160,032.4,045.6,0.246,754.4,01.17,0.508
2016-05-14 02:19:00,1980E-3,5C000400,-0724,0836,12261,032.4,045.6,0.246,754.4,01.17,0.508
2016-05-14 02:20:00,2029E-3,5C000400,-0724,0837,12295,032.3,045.5,0.246,754.4,01.17,0.508
2016-05-14 02:21:00,2019E-3,5C000400,-0724,0835,12093,032.3,045.6,0.246,754.4,01.17,0.508
2016-05-14 02:22:00,1873E-3,5C000400,-0724,0836,12226,032.2,045.6,0.246,754.3,01.17,0.508
2016-05-14 02:23:00,1892E-3,5C000400,-0724,0835,12144,032.2,045.5,0.247,754.3,01.17,0.508
2016-05-14 02:24:00,2036E-3,5C000400,-0724,0836,12056,032.2,045.5,0.247,754.3,01.17,0.508
2016-05-14 02:25:00,1913E-3,5C000400,-0724,0836,12085,032.2,045.5,0.247,754.3,01.17,0.508
2016-05-14 02:26:00,2032E-3,5C000400,-0724,0836,12132,032.1,045.6,0.247,754.2,01.17,0.508
2016-05-14 02:27:00,1993E-3,5C000400,-0724,0835,12198,032.1,045.5,0.247,754.2,01.17,0.508
2016-05-14 02:28:00,1966E-3,5C000400,-0724,0836,12019,032.1,045.6,0.246,754.2,01.17,0.508
2016-05-14 02:29:00,1901E-3,5C000400,-0724,0835,12140,032.1,045.5,0.246,754.2,01.17,0.508
2016-05-14 02:30:00,1846E-3,5C000400,-0724,0835,11975,032.0,045.5,0.247,754.2,01.17,0.508
2016-05-14 02:31:00,1889E-3,5C000400,-0724,0835,12085,032.0,045.5,0.247,754.2,01.17,0.508
2016-05-14 02:32:00,1849E-3,5C000400,-0724,0836,12130,032.0,045.6,0.247,754.1,01.17,0.508
2016-05-14 02:33:00,1906E-3,5C000400,-0724,0836,12017,032.0,045.5,0.248,754.1,01.17,0.508
2016-05-14 02:34:00,1813E-3,5C000400,-0724,0836,12142,032.0,045.5,0.247,754.1,01.17,0.508
2016-05-14 02:35:00,1944E-3,5C000400,-0724,0835,12074,032.0,045.5,0.247,754.1,01.17,0.508
2016-05-14 02:36:00,1941E-3,5C000400,-0724,0834,12244,032.0,045.5,0.247,754.1,01.17,0.508
2016-05-14 02:37:00,1908E-3,5C000400,-0724,0835,12180,032.0,045.6,0.247,754.0,01.17,0.508
2016-05-14 02:38:00,1937E-3,5C000400,-0724,0835,11998,032.0,045.5,0.247,754.1,01.17,0.508
2016-05-14 02:39:00,1961E-3,5C000400,-0724,0835,11971,031.9,045.5,0.248,754.1,01.17,0.508
2016-05-14 02:40:00,1887E-3,5C000400,-0724,0835,12201,031.9,045.5,0.248,754.1,01.17,0.508
2016-05-14 02:41:00,1866E-3,5C000400,-0724,0834,12062,032.0,045.5,0.248,754.1,01.17,0.508
2016-05-14 02:42:00,2090E-3,5C000400,-0724,0835,12203,031.9,045.6,0.247,754.1,01.17,0.508
2016-05-14 02:43:00,1897E-3,5C000400,-0724,0836,12056,031.9,045.5,0.247,754.1,01.17,0.508
2016-05-14 02:44:00,1879E-3,5C000400,-0724,0835,11940,031.9,045.5,0.248,754.1,01.17,0.508
2016-05-14 02:45:00,1939E-3,5C000400,-0724,0836,12122,032.0,045.6,0.248,754.1,01.17,0.508
2016-05-14 02:46:00,2016E-3,5C000400,-0724,0835,12121,031.9,045.5,0.247,754.1,01.17,0.508
2016-05-14 02:47:00,1985E-3,5C000400,-0724,0836,12090,032.0,045.6,0.248,754.1,01.17,0.508
2016-05-14 02:48:00,1912E-3,5C000400,-0724,0835,12076,032.0,045.5,0.248,754.0,01.17,0.508
2016-05-14 02:49:00,1976E-3,5C000400,-0724,0835,12246,032.0,045.6,0.248,754.0,01.17,0.508
2016-05-14 02:50:00,1814E-3,5C000400,-0724,0835,12051,032.0,045.5,0.247,754.0,01.17,0.508
2016-05-14 02:51:00,1783E-3,5C000400,-0724,0835,12144,032.1,045.6,0.248,754.0,01.17,0.508
2016-05-14 02:52:00,1938E-3,5C000400,-0724,0835,11956,032.1,045.6,0.248,754.0,01.17,0.508
2016-05-14 02:53:00,1849E-3,5C000400,-0724,0835,12113,032.1,045.6,0.247,753.9,01.17,0.508
2016-05-14 02:54:00,1813E-3,5C000400,-0724,0836,12147,032.1,045.6,0.248,753.9,01.17,0.508
2016-05-14 02:55:00,2042E-3,5C000400,-0724,0835,12035,032.1,045.5,0.248,753.9,01.17,0.508
2016-05-14 02:56:00,1938E-3,5C000400,-0724,0835,12105,032.1,045.6,0.247,753.8,01.17,0.508
2016-05-14 02:57:00,1929E-3,5C000400,-0724,0836,12148,032.1,045.6,0.247,753.8,01.17,0.508
2016-05-14 02:58:00,1842E-3,5C000400,-0724,0835,12171,032.2,045.5,0.247,753.8,01.17,0.508
2016-05-14 02:59:00,1917E-3,5C000400,-0724,0835,12151,032.2,045.6,0.247,753.8,01.17,0.508
2016-05-14 03:00:00,1861E-3,5C000400,-0724,0836,12152,032.2,045.6,0.248,753.8,01.17,0.508
2016-05-14 03:01:00,1799E-3,5C000400,-0724,0836,12082,032.2,045.5,0.247,753.8,01.17,0.508
2016-05-14 03:02:00,1956E-3,5C000400,-0724,0835,12062,032.2,045.5,0.247,753.8,01.17,0.508
2016-05-14 03:03:00,1967E-3,5C000400,-0724,0835,12107,032.3,045.6,0.247,753.8,01.17,0.508
2016-05-14 03:04:00,1825E-3,5C000400,-0724,0835,12122,032.2,045.6,0.248,753.7,01.17,0.508
2016-05-14 03:05:00,1880E-3,5C000400,-0724,0835,12116,032.2,045.6,0.247,753.6,01.17,0.508
2016-05-14 03:06:00,1842E-3,5C000400,-0724,0836,12268,032.3,045.6,0.247,753.6,01.17,0.508
2016-05-14 03:07:00,1930E-3,5C000400,-0724,0836,12098,032.3,045.6,0.247,753.7,01.17,0.508
2016-05-14 03:08:00,1875E-3,5C000400,-0724,0835,12214,032.3,045.6,0.248,753.6,01.17,0.508
2016-05-14 03:09:00,1966E-3,5C000400,-0724,0836,12244,032.3,045.6,0.247,753.6,01.17,0.508
2016-05-14 03:10:00,1881E-3,5C000400,-0724,0835,12101,032.3,045.6,0.247,753.5,01.17,0.508
2016-05-14 03:11:00,2002E-3,5C000400,-0724,0834,12169,032.3,045.6,0.247,753.5,01.17,0.508
2016-05-14 03:12:00,1775E-3,5C000400,-0724,0836,12058,032.3,045.6,0.247,753.5,01.17,0.508
2016-05-14 03:13:00,1944E-3,5C000400,-0724,0835,12219,032.3,045.5,0.247,753.6,01.17,0.508
2016-05-14 03:14:00,1783E-3,5C000400,-0724,0837,12268,032.3,045.6,0.247,753.5,01.17,0.508
2016-05-14 03:15:00,1883E-3,5C000400,-0724,0835,12046,032.3,045.6,0.247,753.5,01.17,0.508
2016-05-14 03:16:00,1936E-3,5C000400,-0724,0836,12175,032.4,045.6,0.247,753.5,01.17,0.508
2016-05-14 03:17:00,1925E-3,5C000400,-0724,0835,12201,032.4,045.6,0.246,753.4,01.17,0.508
2016-05-14 03:18:00,1959E-3,5C000400,-0724,0835,12231,032.4,045.6,0.247,753.5,01.17,0.508
2016-05-14 03:19:00,1986E-3,5C000400,-0724,0835,12089,032.4,045.6,0.247,753.5,01.17,0.508
2016-05-14 03:20:00,1938E-3,5C000400,-0724,0836,12100,032.4,045.6,0.247,753.5,01.17,0.508
2016-05-14 03:21:00,1954E-3,5C000400,-0724,0837,12267,032.4,045.6,0.246,753.5,01.17,0.508
2016-05-14 03:22:00,1776E-3,5C000400,-0724,0835,12149,032.4,045.6,0.247,753.5,01.17,0.508
2016-05-14 03:23:00,1910E-3,5C000400,-0724,0835,12119,032.4,045.6,0.247,753.5,01.17,0.508
2016-05-14 03:24:00,1952E-3,5C000400,-0724,0836,12094,032.4,045.6,0.247,753.5,01.17,0.508
2016-05-14 03:25:00,2062E-3,5C000400,-0724,0836,12096,032.4,045.6,0.246,753.4,01.17,0.508
2016-05-14 03:26:00,1919E-3,5C000400,-0724,0835,12131,032.5,045.6,0.247,753.5,01.17,0.508
2016-05-14 03:27:00,1906E-3,5C000400,-0724,0836,12216,032.4,045.6,0.247,753.5,01.17,0.508
2016-05-14 03:28:00,1850E-3,5C000400,-0724,0836,12177,032.5,045.6,0.247,753.5,01.17,0.508
2016-05-14 03:29:00,1801E-3,5C000400,-0724,0835,12076,032.5,045.6,0.246,753.4,01.17,0.508
2016-05-14 03:30:00,1875E-3,5C000400,-0724,0835,12237,032.5,045.6,0.247,753.4,01.17,0.508
2016-05-14 03:31:00,1935E-3,5C000400,-0724,0836,12168,032.5,045.6,0.247,753.5,01.17,0.508
2016-05-14 03:32:00,1951E-3,5C000400,-0724,0836,12225,032.5,045.6,0.247,753.5,01.17,0.508
2016-05-14 03:33:00,1971E-3,5C000400,-0724,0835,12170,032.5,045.6,0.246,753.5,01.17,0.508
2016-05-14 03:34:00,1960E-3,5C000400,-0724,0836,12097,032.5,045.6,0.247,753.4,01.17,0.508
2016-05-14 03:35:00,1907E-3,5C000400,-0724,0835,12176,032.5,045.6,0.247,753.5,01.17,0.508
2016-05-14 03:36:00,1867E-3,5C000400,-0724,0836,12101,032.5,045.6,0.247,753.4,01.17,0.508
2016-05-14 03:37:00,1923E-3,5C000400,-0724,0836,12128,032.5,045.6,0.246,753.4,01.17,0.508
2016-05-14 03:38:00,1882E-3,5C000400,-0724,0835,12172,032.5,045.6,0.247,753.3,01.17,0.508
2016-05-14 03:39:00,1930E-3,5C000400,-0724,0835,12217,032.5,045.6,0.247,753.3,01.17,0.508
2016-05-14 03:40:00,1907E-3,5C000400,-0724,0836,12211,032.5,045.6,0.247,753.4,01.17,0.508
2016-05-14 03:41:00,1922E-3,5C000400,-0724,0835,12226,032.5,045.6,0.246,753.3,01.17,0.508
2016-05-14 03:42:00,2032E-3,5C000400,-0724,0836,12105,032.5,045.6,0.247,753.3,01.17,0.508
2016-05-14 03:43:00,1987E-3,5C000400,-0724,0836,12086,032.5,045.6,0.247,753.2,01.17,0.508
2016-05-14 03:44:00,1837E-3,5C000400,-0724,0836,12088,032.5,045.6,0.247,753.3,01.17,0.508
2016-05-14 03:45:00,1890E-3,5C000400,-0724,0837,12151,032.6,045.6,0.246,753.2,01.17,0.508
2016-05-14 03:46:00,1898E-3,5C000400,-0724,0836,12162,032.5,045.6,0.246,753.3,01.17,0.508
2016-05-14 03:47:00,2029E-3,5C000400,-0724,0836,12192,032.5,045.6,0.247,753.2,01.17,0.508
2016-05-14 03:48:00,2013E-3,5C000400,-0724,0835,12165,032.6,045.6,0.247,753.2,01.17,0.508
2016-05-14 03:49:00,1981E-3,5C000400,-0724,0836,12079,032.5,045.6,0.246,753.3,01.17,0.508
2016-05-14 03:50:00,2069E-3,5C000400,-0724,0836,12034,032.5,045.6,0.246,753.2,01.17,0.508
2016-05-14 03:51:00,2062E-3,5C000400,-0724,0836,12153,032.6,045.6,0.247,753.2,01.17,0.508
2016-05-14 03:52:00,1941E-3,5C000400,-0724,0836,12134,032.5,045.6,0.247,753.2,01.17,0.508
2016-05-14 03:53:00,2040E-3,5C000400,-0724,0836,12089,032.5,045.6,0.246,753.3,01.17,0.508
2016-05-14 03:54:00,1822E-3,5C000400,-0724,0836,12122,032.5,045.6,0.246,753.2,01.17,0.508
2016-05-14 03:55:00,1924E-3,5C000400,-0724,0836,12150,032.5,045.6,0.246,753.1,01.17,0.508
2016-05-14 03:56:00,1866E-3,5C000400,-0724,0835,12224,032.5,045.6,0.247,753.1,01.17,0.508
2016-05-14 03:57:00,1967E-3,5C000400,-0724,0836,12065,032.6,045.6,0.247,753.1,01.17,0.508
2016-05-14 03:58:00,2054E-3,5C000400,-0724,0836,12076,032.5,045.6,0.246,753.1,01.17,0.508
2016-05-14 03:59:00,2075E-3,5C000400,-0724,0835,12094,032.6,045.6,0.246,753.1,01.17,0.508
2016-05-14 04:00:00,1878E-3,5C000400,-0724,0836,12231,032.5,045.6,0.247,753.0,01.17,0.508
2016-05-14 04:01:00,1895E-3,5C000400,-0724,0835,12036,032.5,045.6,0.247,753.0,01.17,0.508
2016-05-14 04:02:00,2043E-3,5C000400,-0724,0835,12177,032.5,045.6,0.246,752.9,01.17,0.508
2016-05-14 04:03:00,1921E-3,5C000400,-0724,0835,12166,032.5,045.6,0.246,753.0,01.17,0.508
2016-05-14 04:04:00,1954E-3,5C000400,-0724,0836,12054,032.5,045.5,0.246,753.1,01.17,0.508
2016-05-14 04:05:00,2004E-3,5C000400,-0724,0835,12127,032.5,045.6,0.247,752.9,01.17,0.508
2016-05-14 04:06:00,1831E-3,5C000400,-0724,0836,12200,032.5,045.6,0.246,752.9,01.17,0.508
2016-05-14 04:07:00,1938E-3,5C000400,-0724,0835,12099,032.5,045.6,0.246,753.0,01.17,0.508
2016-05-14 04:08:00,2109E-3,5C000400,-0724,0835,12203,032.5,045.5,0.246,752.9,01.17,0.508
2016-05-14 04:09:00,2060E-3,5C000400,-0724,0836,12256,032.5,045.5,0.247,752.9,01.17,0.508
2016-05-14 04:10:00,2013E-3,5C000400,-0724,0835,12144,032.5,045.6,0.247,752.8,01.17,0.508
2016-05-14 04:11:00,1900E-3,5C000400,-0724,0835,12073,032.5,045.6,0.247,752.9,01.17,0.508
2016-05-14 04:12:00,1862E-3,5C000400,-0724,0836,12184,032.5,045.6,0.246,753.0,01.17,0.508
2016-05-14 04:13:00,2021E-3,5C000400,-0724,0836,12173,032.5,045.6,0.246,752.9,01.17,0.508
2016-05-14 04:14:00,1943E-3,5C000400,-0724,0835,12199,032.5,045.6,0.247,752.8,01.17,0.508
2016-05-14 04:15:00,2096E-3,5C000400,-0724,0835,12174,032.5,045.6,0.247,752.8,01.17,0.508
2016-05-14 04:16:00,1881E-3,5C000400,-0724,0836,12018,032.5,045.6,0.247,752.8,01.17,0.508
2016-05-14 04:17:00,1957E-3,5C000400,-0724,0835,12068,032.5,045.6,0.246,752.9,01.17,0.508
2016-05-14 04:18:00,2007E-3,5C000400,-0724,0836,12067,032.5,045.6,0.246,752.8,01.17,0.508
2016-05-14 04:19:00,1954E-3,5C000400,-0724,0835,12283,032.5,045.6,0.247,752.8,01.17,0.508
2016-05-14 04:20:00,1966E-3,5C000400,-0724,0836,12193,032.5,045.6,0.246,752.8,01.17,0.508